This demonstration page uses our WeatherBlox Daily Observations layout. Learn more.

Hourly Observations for September 27, 2020

Temp ( °F °C ) Dew Point ( °F °C ) Humidity (%) Winds ( mph kmh ) Pressure ( in mb ) Visibility ( mi km ) Precip ( " mm )
12:15 am 00:15 Clear 63 17.1 46 7.7 54 54 N 9 15 29.76 1008 10 16.0934 0 0
12:35 am 00:35 Clear 63 17 46 7.8 55 55 N 10 17 29.77 1008 10 16.0934 0 0
12:55 am 00:55 Clear 62 16.7 46 7.8 56 56 N 9 15 29.78 1008 10 16.0934 0 0
1:15 am 01:15 Clear 61 16.3 46 7.7 57 57 NNE 7 11 29.8 1009 10 16.0934 0 0
1:30 am 01:30 Clear 61 16 46 7.6 58 58 NNE 8 13 29.78 1008 10 16.0934 0 0
1:55 am 01:55 Clear 59 15 46 7.6 61 61 NNE 8 13 29.79 1009 10 16.0934 0 0
2:15 am 02:15 Clear 58 14.6 46 7.6 63 63 NNE 5 7 29.8 1009 10 16.0934 0 0
2:35 am 02:35 Clear 58 14.2 46 7.6 65 65 NNE 6 9 29.81 1009 10 16.0934 0 0
2:55 am 02:55 Clear 56 13.6 45 7.3 66 66 NNE 5 7 29.81 1010 10 16.0934 0 0
3:15 am 03:15 Clear 56 13.6 46 7.7 68 68 NNE 3 6 29.82 1010 10 16.0934 0 0
3:35 am 03:35 Clear 56 13.6 46 7.7 68 68 NNE 5 7 29.81 1010 10 16.0934 0 0
3:55 am 03:55 Clear 55 12.5 46 7.7 73 73 NNE 5 7 29.83 1010 10 16.0934 0 0
4:15 am 04:15 Clear 55 12.7 46 8 73 73 N 7 11 29.83 1010 10 16.0934 0 0
4:35 am 04:35 Clear 55 13 46 7.8 71 71 NNE 6 9 29.84 1010 10 16.0934 0 0
4:55 am 04:55 Clear 57 13.8 46 7.5 66 66 N 6 9 29.84 1010 10 16.0934 0 0
5:15 am 05:15 Clear 56 13.3 46 7.5 68 68 NNE 5 7 29.83 1010 10 16.0934 0 0
5:30 am 05:30 Clear 55 12.9 46 7.6 70 70 N 6 9 29.84 1010 10 16.0934 0 0
5:55 am 05:55 Clear 54 12.1 46 7.5 74 74 N 5 7 29.84 1011 10 16.0934 0 0
6:15 am 06:15 Clear 54 12 45 7.4 74 74 NNE 6 9 29.86 1011 10 16.0934 0 0
6:35 am 06:35 Clear 54 12.2 45 7.1 71 71 NNE 5 7 29.86 1011 10 16.0934 0 0
6:55 am 06:55 Partly Cloudy 55 12.6 45 7.3 70 70 NNE 5 7 29.88 1012 10 16.0934 0 0
7:15 am 07:15 Partly Cloudy 56 13.1 45 7.1 67 67 NE 5 7 29.9 1012 10 16.0934 0 0
7:35 am 07:35 Partly Cloudy 55 13 45 7.2 68 68 N 5 7 29.9 1012 10 16.0934 0 0
7:55 am 07:55 Partly Cloudy 55 12.6 46 7.6 72 72 NNE 5 7 29.9 1013 10 16.0934 0 0
8:15 am 08:15 Partly Cloudy 55 12.9 46 7.5 70 70 NNE 3 6 29.92 1013 10 16.0934 0 0
8:35 am 08:35 Cloudy 56 13.1 46 7.5 69 69 N 3 6 29.94 1014 10 16.0934 0 0
8:55 am 08:55 Cloudy 55 12.8 46 8 73 73 Calm 29.93 1013 10 16.0934 0 0
9:15 am 09:15 Cloudy 56 13.2 46 7.6 69 69 N 5 7 29.94 1014 10 16.0934 0 0
9:35 am 09:35 Cloudy 57 14 44 6.7 62 62 NNW 8 13 29.97 1015 10 16.0934 0 0
9:55 am 09:55 Cloudy with Light Rain 56 13.6 44 6.4 62 62 N 10 17 29.96 1015 10 16.0934 0 0
10:15 am 10:15 Cloudy with Light Drizzle 55 12.6 45 7.3 70 70 N 8 13 29.98 1015 10 16.0934 0 0
10:35 am 10:35 Cloudy with Light Rain 54 12.2 45 7.4 73 73 N 10 17 30 1016 10 16.0934 0 0
10:55 am 10:55 Cloudy with Light Rain 54 12.1 46 7.5 74 74 N 5 7 30 1016 10 16.0934 0 0
11:10 am 11:10 Cloudy 54 12.1 46 7.7 75 75 NNW 6 9 30.02 1017 10 16.0934 0 0
11:35 am 11:35 Cloudy with Light Rain 55 12.7 43 6 64 64 N 10 17 30.03 1017 10 16.0934 0 0
11:55 am 11:55 Cloudy with Light Rain 54 12 43 6.1 67 67 N 8 13 30.04 1017 10 16.0934 0 0
12:15 pm 12:15 Cloudy with Light Rain 53 11.5 43 6.2 70 70 N 15 24 30.03 1017 10 16.0934 0 0
12:35 pm 12:35 Cloudy with Light Rain 52 11.1 45 7 76 76 N 8 13 30.05 1018 10 16.0934 0.01 0.254
12:55 pm 12:55 Cloudy with Light Rain 53 11.4 46 7.5 77 77 NNW 7 11 30.06 1018 10 16.0934 0.01 0.254
1:15 pm 13:15 Cloudy 55 12.6 45 7.3 70 70 NNW 13 20 30.05 1018 10 16.0934 0 0
1:35 pm 13:35 Cloudy with Light Rain 55 13 43 6.2 64 64 NNW 15 24 30.03 1017 10 16.0934 0 0
1:55 pm 13:55 Cloudy with Light Rain 56 13.4 44 6.6 64 64 NW 7 11 30.03 1017 10 16.0934 0 0
2:15 pm 14:15 Cloudy 57 13.9 46 7.8 67 67 WNW 5 7 30.02 1017 10 16.0934 0 0
2:35 pm 14:35 Cloudy 58 14.2 44 6.8 61 61 WNW 6 9 30.01 1016 10 16.0934 0 0
2:55 pm 14:55 Cloudy 59 15 44 6.9 59 59 WNW 8 13 29.99 1016 10 16.0934 0 0
3:15 pm 15:15 Partly Cloudy 62 16.4 43 6.1 51 51 NW 9 15 29.96 1014 10 16.0934 0 0
3:35 pm 15:35 Sunny 62 16.7 40 4.3 44 44 NW 10 17 29.96 1015 10 16.0934 0 0
3:55 pm 15:55 Sunny 63 17 39 4.1 43 43 NW 9 15 29.96 1015 10 16.0934 0 0
4:15 pm 16:15 Sunny 64 17.6 37 2.7 37 37 NNW 7 11 29.97 1015 10 16.0934 0 0
4:35 pm 16:35 Partly Cloudy 66 19.1 37 2.8 34 34 NNW 14 22 29.95 1014 10 16.0934 0 0
4:55 pm 16:55 Partly Cloudy 67 19.5 35 1.7 31 31 NW 18 30 29.94 1014 10 16.0934 0 0
5:15 pm 17:15 Sunny 66 19.1 35 1.9 32 32 NNW 15 24 29.92 1013 10 16.0934 0 0
5:35 pm 17:35 Sunny 65 18.5 33 0.5 30 30 NNW 17 28 29.92 1013 10 16.0934 0 0
5:55 pm 17:55 Sunny 66 19 32 0 28 28 NNW 13 20 29.94 1014 10 16.0934 0 0
6:15 pm 18:15 Sunny 64 18 31 -0.7 28 28 NNW 9 15 29.93 1014 10 16.0934 0 0
6:35 pm 18:35 Sunny 64 18 31 -0.4 29 29 NNW 12 19 29.94 1014 10 16.0934 0 0
6:55 pm 18:55 Sunny 63 17 33 0.3 32 32 NNW 7 11 29.96 1015 10 16.0934 0 0
7:15 pm 19:15 Sunny 61 16.2 33 0.3 34 34 NNW 7 11 29.96 1015 10 16.0934 0 0
7:35 pm 19:35 Clear 60 15.3 31 -0.3 35 35 NNW 6 9 29.97 1015 10 16.0934 0 0
7:55 pm 19:55 Clear 57 13.7 32 -0.1 39 39 NW 5 7 30 1016 10 16.0934 0 0
8:15 pm 20:15 Clear 55 12.5 32 0 43 43 NW 5 7 30.02 1017 10 16.0934 0 0
8:35 pm 20:35 Clear 54 12 32 0 44 44 NNW 7 11 30.03 1017 10 16.0934 0 0
8:55 pm 20:55 Clear 53 11.6 32 0 45 45 NW 6 9 30.04 1017 10 16.0934 0 0
9:15 pm 21:15 Clear 51 10.4 33 0.5 51 51 WNW 7 11 30.07 1018 10 16.0934 0 0
9:35 pm 21:35 Clear 51 10.3 33 0.3 50 50 WNW 7 11 30.09 1019 10 16.0934 0 0
9:55 pm 21:55 Clear 49 9.5 33 0.7 55 55 NW 7 11 30.1 1019 10 16.0934 0 0
10:15 pm 22:15 Clear 49 9.5 33 0.7 55 55 NNW 6 9 30.1 1019 10 16.0934 0 0
10:35 pm 22:35 Clear 48 8.7 34 1 59 59 NW 5 7 30.11 1020 10 16.0934 0 0
10:55 pm 22:55 Clear 47 8.3 33 0.8 60 60 WNW 5 7 30.14 1021 10 16.0934 0 0
11:15 pm 23:15 Clear 44 6.9 33 0.6 65 65 WNW 5 7 30.14 1021 10 16.0934 0 0
11:35 pm 23:35 Clear 46 7.6 34 1.1 64 64 WNW 6 9 30.15 1021 10 16.0934 0 0
11:55 pm 23:55 Clear 45 7.4 34 1.2 65 65 WNW 5 7 30.15 1021 10 16.0934 0 0

Powered by AerisWeather